Location: Unspecified
(52.4292°N, 19.3359°E)
Time: 05:25:22
(UTC+02:00)

A-11 Canister half - Pass Details

Date: 19 April 2026
Orbit: 1515 x 1684 km, 47.2° (Epoch: 11 May)

Event Time Altitude Azimuth Distance (km) Brightness Sun altitude
Exits shadow 03:41:31 - 180° (S) 4,237 10.9 -15.7°
Reaches altitude 10° 03:44:07 10° 169° (SSE) 3,671 10.7 -15.4°
Maximum altitude 03:49:46 18° 130° (SE) 3,092 10.7 -14.8°
Drops below altitude 10° 03:55:29 10° 91° (E) 3,725 11.7 -14.1°
Sets 03:59:49 0° 75° (ENE) 4,739 12.8 -13.6°
